TimeCST,TemperatureF,Dew PointF,Humidity,Sea Level PressureIn,VisibilityMPH,Wind Direction,Wind SpeedMPH,Gust SpeedMPH,PrecipitationIn,Events,Conditions,WindDirDegrees,DateUTC
12:15 AM,41.0,24.8,53,29.71,10.0,South,9.2,-,N/A,,Clear,170,2012-12-19 06:15:00
12:35 AM,41.0,24.8,53,29.70,10.0,South,10.4,-,N/A,,Clear,170,2012-12-19 06:35:00
12:55 AM,42.8,24.8,49,29.68,10.0,SSE,11.5,-,N/A,,Clear,160,2012-12-19 06:55:00
1:15 AM,44.6,23.0,43,29.68,10.0,SSE,9.2,-,N/A,,Clear,160,2012-12-19 07:15:00
1:35 AM,42.8,24.8,49,29.68,10.0,South,5.8,-,N/A,,Clear,190,2012-12-19 07:35:00
1:55 AM,41.0,24.8,53,29.67,10.0,South,5.8,-,N/A,,Clear,170,2012-12-19 07:55:00
2:15 AM,41.0,24.8,53,29.67,10.0,South,8.1,-,N/A,,Clear,170,2012-12-19 08:15:00
2:35 AM,41.0,24.8,53,29.67,10.0,South,6.9,-,N/A,,Clear,180,2012-12-19 08:35:00
2:55 AM,41.0,24.8,53,29.66,10.0,South,8.1,-,N/A,,Clear,170,2012-12-19 08:55:00
3:15 AM,41.0,23.0,49,29.64,10.0,South,8.1,-,N/A,,Clear,170,2012-12-19 09:15:00
3:35 AM,41.0,24.8,53,29.63,10.0,South,6.9,-,N/A,,Clear,170,2012-12-19 09:35:00
3:55 AM,41.0,24.8,53,29.62,10.0,SSE,10.4,-,N/A,,Clear,160,2012-12-19 09:55:00
4:15 AM,41.0,24.8,53,29.61,10.0,South,9.2,-,N/A,,Clear,190,2012-12-19 10:15:00
4:35 AM,39.2,26.6,61,29.60,10.0,South,8.1,-,N/A,,Clear,180,2012-12-19 10:35:00
4:55 AM,39.2,26.6,61,29.59,10.0,South,8.1,-,N/A,,Clear,190,2012-12-19 10:55:00
5:15 AM,41.0,26.6,57,29.58,10.0,SW,13.8,-,N/A,,Clear,220,2012-12-19 11:15:00
5:35 AM,44.6,26.6,49,29.58,10.0,SW,12.7,-,N/A,,Clear,230,2012-12-19 11:35:00
5:55 AM,44.6,26.6,49,29.57,10.0,WSW,10.4,-,N/A,,Clear,240,2012-12-19 11:55:00
6:15 AM,44.6,26.6,49,29.56,10.0,SW,9.2,-,N/A,,Clear,230,2012-12-19 12:15:00
6:35 AM,42.8,26.6,53,29.56,10.0,SW,9.2,-,N/A,,Clear,230,2012-12-19 12:35:00
6:55 AM,42.8,26.6,53,29.55,10.0,SW,10.4,-,N/A,,Clear,220,2012-12-19 12:55:00
7:15 AM,41.0,26.6,57,29.56,10.0,SSW,10.4,-,N/A,,Clear,210,2012-12-19 13:15:00
7:35 AM,42.8,26.6,53,29.55,10.0,SSW,11.5,-,N/A,,Clear,200,2012-12-19 13:35:00
7:55 AM,42.8,26.6,53,29.55,10.0,SSW,12.7,-,N/A,,Clear,210,2012-12-19 13:55:00
8:15 AM,42.8,26.6,53,29.55,10.0,SSW,10.4,-,N/A,,Clear,210,2012-12-19 14:15:00
8:35 AM,42.8,26.6,53,29.54,10.0,SSW,11.5,-,N/A,,Clear,200,2012-12-19 14:35:00
8:55 AM,42.8,26.6,53,29.56,10.0,SSW,11.5,-,N/A,,Clear,210,2012-12-19 14:55:00
9:15 AM,44.6,26.6,49,29.55,10.0,SW,9.2,-,N/A,,Clear,220,2012-12-19 15:15:00
9:35 AM,42.8,28.4,57,29.56,10.0,SSW,10.4,-,N/A,,Clear,200,2012-12-19 15:35:00
9:55 AM,44.6,26.6,49,29.53,10.0,South,11.5,-,N/A,,Clear,180,2012-12-19 15:55:00
10:15 AM,50.0,26.6,40,29.53,10.0,SSW,12.7,-,N/A,,Clear,210,2012-12-19 16:15:00
10:35 AM,53.6,24.8,33,29.53,10.0,SW,17.3,-,N/A,,Clear,220,2012-12-19 16:35:00
10:55 AM,55.4,23.0,29,29.53,10.0,SW,17.3,21.9,N/A,,Clear,220,2012-12-19 16:55:00
11:15 AM,55.4,23.0,29,29.53,10.0,SW,18.4,24.2,N/A,,Clear,230,2012-12-19 17:15:00
11:35 AM,59.0,23.0,25,29.51,10.0,SW,23.0,29.9,N/A,,Clear,220,2012-12-19 17:35:00
11:55 AM,60.8,23.0,23,29.50,10.0,SW,29.9,35.7,N/A,,Scattered Clouds,220,2012-12-19 17:55:00
12:15 PM,60.8,23.0,23,29.48,5.0,SW,38.0,42.6,N/A,,Haze,220,2012-12-19 18:15:00
12:35 PM,60.8,24.8,25,29.48,4.0,SW,39.1,48.3,N/A,,Haze,230,2012-12-19 18:35:00
12:55 PM,60.8,26.6,27,29.48,7.0,SW,35.7,46.0,N/A,,Overcast,230,2012-12-19 18:55:00
1:15 PM,60.8,26.6,27,29.46,10.0,SW,35.7,46.0,N/A,,Overcast,230,2012-12-19 19:15:00
1:35 PM,60.8,28.4,29,29.46,10.0,WSW,33.4,42.6,N/A,,Overcast,240,2012-12-19 19:35:00
1:55 PM,60.8,28.4,29,29.45,7.0,SW,36.8,46.0,N/A,,Overcast,230,2012-12-19 19:55:00
2:15 PM,41.0,17.6,39,29.52,4.0,NNW,31.1,42.6,N/A,,Haze,340,2012-12-19 20:15:00
2:35 PM,39.2,17.6,42,29.54,7.0,NNW,34.5,41.4,N/A,,Overcast,340,2012-12-19 20:35:00
2:55 PM,37.4,17.6,45,29.58,5.0,NNW,33.4,40.3,N/A,,Haze,340,2012-12-19 20:55:00
3:15 PM,35.6,17.6,48,29.59,5.0,NW,35.7,41.4,N/A,,Haze,320,2012-12-19 21:15:00
3:35 PM,35.6,19.4,52,29.61,7.0,NW,33.4,43.7,N/A,,Overcast,320,2012-12-19 21:35:00
3:55 PM,33.8,21.2,60,29.62,7.0,NNW,34.5,38.0,N/A,,Overcast,330,2012-12-19 21:55:00
4:15 PM,33.8,21.2,60,29.66,10.0,NNW,32.2,43.7,N/A,,Mostly Cloudy,330,2012-12-19 22:15:00
4:35 PM,32.0,21.2,64,29.71,10.0,NNW,33.4,46.0,N/A,,Mostly Cloudy,330,2012-12-19 22:35:00
4:55 PM,32.0,21.2,64,29.73,4.0,NW,33.4,44.9,N/A,Snow,Light Snow,320,2012-12-19 22:55:00
5:15 PM,28.4,23.0,80,29.77,2.0,NW,33.4,46.0,N/A,Snow,Light Snow,320,2012-12-19 23:15:00
5:35 PM,28.4,23.0,80,29.78,7.0,NNW,33.4,41.4,N/A,Snow,Light Snow,330,2012-12-19 23:35:00
5:55 PM,28.4,19.4,69,29.80,7.0,NNW,41.4,50.6,N/A,,Overcast,330,2012-12-19 23:55:00
6:15 PM,28.4,19.4,69,29.83,5.0,NNW,35.7,51.8,N/A,,Haze,330,2012-12-20 00:15:00
6:35 PM,28.4,19.4,69,29.85,10.0,NNW,35.7,50.6,N/A,,Overcast,330,2012-12-20 00:35:00
6:55 PM,28.4,19.4,69,29.86,10.0,NNW,39.1,46.0,N/A,,Mostly Cloudy,330,2012-12-20 00:55:00
7:15 PM,28.4,19.4,69,29.90,7.0,NNW,41.4,49.5,N/A,,Overcast,330,2012-12-20 01:15:00
7:35 PM,26.6,19.4,74,29.92,7.0,NNW,39.1,54.1,N/A,,Overcast,340,2012-12-20 01:35:00
7:55 PM,26.6,19.4,74,29.93,10.0,NNW,39.1,49.5,N/A,,Mostly Cloudy,340,2012-12-20 01:55:00
8:15 PM,26.6,17.6,69,29.97,10.0,NNW,35.7,47.2,N/A,,Scattered Clouds,340,2012-12-20 02:15:00
8:35 PM,26.6,17.6,69,29.98,10.0,NNW,39.1,50.6,N/A,,Clear,340,2012-12-20 02:35:00
8:55 PM,26.6,17.6,69,29.99,10.0,NNW,33.4,41.4,N/A,,Clear,340,2012-12-20 02:55:00
9:15 PM,24.8,17.6,74,30.00,10.0,NNW,26.5,34.5,N/A,,Clear,330,2012-12-20 03:15:00
9:35 PM,24.8,17.6,74,30.02,10.0,NNW,31.1,40.3,N/A,,Clear,330,2012-12-20 03:35:00
9:55 PM,24.8,15.8,69,30.03,10.0,NNW,32.2,42.6,N/A,,Clear,330,2012-12-20 03:55:00
10:15 PM,24.8,15.8,69,30.05,10.0,NNW,28.8,35.7,N/A,,Clear,330,2012-12-20 04:15:00
10:35 PM,24.8,15.8,69,30.06,10.0,NNW,27.6,33.4,N/A,,Clear,330,2012-12-20 04:35:00
10:55 PM,24.8,14.0,64,30.08,10.0,NNW,27.6,36.8,N/A,,Clear,330,2012-12-20 04:55:00
11:15 PM,23.0,14.0,68,30.09,10.0,NW,23.0,28.8,N/A,,Clear,320,2012-12-20 05:15:00
11:35 PM,23.0,12.2,63,30.11,10.0,NW,19.6,-,N/A,,Clear,320,2012-12-20 05:35:00
11:55 PM,23.0,12.2,63,30.12,10.0,NW,21.9,-,N/A,,Clear,320,2012-12-20 05:55:00